VKG481 LGRP-ESSV

Flight info

Callsign VKG481
Flight time N/A
Altitude 34000
Route PIROX UN129 DUGLA UG80 EKI UN618 VADEN DCT RONBU DCT COZMU DCT ROMOL/K0843F340 Q97 DIBED/N0455F340 M977 OSMAT L621 LIMVI N5 GITOV DCT GARSO DCT OLANU DCT KINTI
Aircraft A321/M-SDE3FGHIRWY/LB1

Departure

Time 2026-04-29 09:56
Airport Rhodes International Airport "Diagoras" (LGRP)

Arrival

Time N/A
Airport Visby Airport (ESSV)
Time Latitude Longitude Altitude Speed Heading
2026-04-29 09:23 36.40379 28.09184 28 ft 0 kts 159°
2026-04-29 09:47 36.40386 28.09181 28 ft 4 kts 159°
2026-04-29 09:47 36.40410 28.09171 28 ft 2 kts 159°
2026-04-29 09:47 36.40429 28.09157 28 ft 4 kts 121°
2026-04-29 09:47 36.40435 28.09128 28 ft 4 kts 78°
2026-04-29 09:48 36.40436 28.09129 28 ft 4 kts 70°
2026-04-29 09:48 36.40440 28.09142 28 ft 0 kts 70°
2026-04-29 09:51 36.40441 28.09145 28 ft 1 kts 70°
2026-04-29 09:51 36.40445 28.09159 28 ft 2 kts 70°
2026-04-29 09:52 36.40452 28.09184 28 ft 4 kts 70°
2026-04-29 09:52 36.40471 28.09246 28 ft 10 kts 70°
2026-04-29 09:52 36.40496 28.09323 28 ft 10 kts 58°
2026-04-29 09:52 36.40571 28.09403 28 ft 18 kts 42°
2026-04-29 09:53 36.40629 28.09551 28 ft 19 kts 70°
2026-04-29 09:53 36.40673 28.09705 28 ft 19 kts 70°
2026-04-29 09:53 36.40717 28.09852 28 ft 18 kts 70°
2026-04-29 09:53 36.40758 28.09993 28 ft 17 kts 70°
2026-04-29 09:54 36.40797 28.10128 28 ft 16 kts 70°
2026-04-29 09:54 36.40835 28.10255 28 ft 15 kts 70°
2026-04-29 09:54 36.40869 28.10372 28 ft 13 kts 69°
2026-04-29 09:54 36.40929 28.10433 28 ft 11 kts 355°
2026-04-29 09:55 36.40990 28.10373 27 ft 13 kts 299°
2026-04-29 09:55 36.41013 28.10253 27 ft 15 kts 264°
2026-04-29 09:55 36.40975 28.10109 27 ft 26 kts 250°
2026-04-29 09:55 36.40821 28.09578 29 ft 104 kts 250°
2026-04-29 09:56 36.40496 28.08476 36 ft 164 kts 249°
2026-04-29 09:56 36.40095 28.07117 754 ft 164 kts 251°
2026-04-29 09:56 36.39711 28.05779 1572 ft 170 kts 259°
2026-04-29 09:56 36.39892 28.04322 2037 ft 178 kts 303°
2026-04-29 09:57 36.40880 28.03357 2217 ft 191 kts 344°
2026-04-29 09:57 36.42246 28.03148 2436 ft 206 kts
2026-04-29 09:57 36.43739 28.03158 2590 ft 224 kts 360°
2026-04-29 09:57 36.45388 28.03128 2687 ft 250 kts 356°
2026-04-29 09:58 36.47056 28.02450 3152 ft 260 kts 323°
2026-04-29 09:58 36.48391 28.00896 3772 ft 266 kts 315°
2026-04-29 09:58 36.49825 27.99436 4457 ft 269 kts 329°
2026-04-29 09:58 36.51498 27.98457 5144 ft 271 kts 338°
2026-04-29 09:59 36.53245 27.97553 5855 ft 273 kts 338°
2026-04-29 09:59 36.54999 27.96649 6577 ft 273 kts 338°
2026-04-29 09:59 36.56787 27.95727 7243 ft 275 kts 338°
2026-04-29 09:59 36.58543 27.94816 7885 ft 278 kts 338°
2026-04-29 10:00 36.60329 27.93885 8552 ft 280 kts 337°
2026-04-29 10:00 36.62133 27.92943 9210 ft 283 kts 337°
2026-04-29 10:00 36.63954 27.91994 9861 ft 285 kts 336°
2026-04-29 10:00 36.65806 27.91028 10251 ft 297 kts 336°
2026-04-29 10:01 36.67774 27.90002 10387 ft 317 kts 336°
2026-04-29 10:01 36.69870 27.88909 10509 ft 336 kts 336°
2026-04-29 10:01 36.72078 27.87752 10713 ft 351 kts 336°
2026-04-29 10:01 36.74340 27.86547 11214 ft 355 kts 336°
2026-04-29 10:02 36.76622 27.85320 11778 ft 359 kts 336°
2026-04-29 10:02 36.78922 27.84081 12365 ft 361 kts 336°
2026-04-29 10:02 36.81240 27.82834 12956 ft 364 kts 336°
2026-04-29 10:02 36.83579 27.81577 13558 ft 367 kts 336°
2026-04-29 10:03 36.85929 27.80318 14104 ft 369 kts 335°
2026-04-29 10:03 36.88297 27.79048 14619 ft 372 kts 335°
2026-04-29 10:03 36.90682 27.77768 15122 ft 374 kts 335°
2026-04-29 10:03 36.93083 27.76480 15623 ft 377 kts 335°
2026-04-29 10:04 36.95500 27.75182 16118 ft 379 kts 335°
2026-04-29 10:04 36.97930 27.73873 16603 ft 382 kts 335°
2026-04-29 10:04 37.00379 27.72551 17077 ft 384 kts 335°
2026-04-29 10:04 37.02838 27.71223 17571 ft 386 kts 335°
2026-04-29 10:05 37.05317 27.69885 18043 ft 389 kts 335°
2026-04-29 10:05 37.07812 27.68538 18471 ft 392 kts 335°
2026-04-29 10:05 37.10322 27.67185 18875 ft 394 kts 335°
2026-04-29 10:05 37.12847 27.65823 19278 ft 396 kts 335°
2026-04-29 10:06 37.15386 27.64449 19677 ft 398 kts 335°
2026-04-29 10:06 37.17901 27.63083 20067 ft 400 kts 335°
2026-04-29 10:06 37.20463 27.61689 20449 ft 403 kts 335°
2026-04-29 10:06 37.23041 27.60290 20849 ft 405 kts 335°
2026-04-29 10:07 37.25632 27.58884 21243 ft 407 kts 335°
2026-04-29 10:07 37.28237 27.57467 21634 ft 409 kts 335°
2026-04-29 10:07 37.30861 27.56056 22014 ft 412 kts 336°
2026-04-29 10:07 37.33511 27.54661 22394 ft 414 kts 336°
2026-04-29 10:08 37.36177 27.53274 22775 ft 416 kts 336°
2026-04-29 10:08 37.38861 27.51886 23150 ft 418 kts 336°
2026-04-29 10:08 37.41559 27.50487 23521 ft 420 kts 336°
2026-04-29 10:08 37.44268 27.49074 23826 ft 422 kts 336°
2026-04-29 10:09 37.46987 27.47648 24121 ft 424 kts 336°
2026-04-29 10:09 37.49715 27.46212 24436 ft 426 kts 336°
2026-04-29 10:09 37.52442 27.44740 24742 ft 427 kts 335°
2026-04-29 10:09 37.55160 27.43202 25041 ft 429 kts 334°
2026-04-29 10:10 37.57876 27.41621 25359 ft 431 kts 334°
2026-04-29 10:10 37.60596 27.40024 25683 ft 432 kts 334°
2026-04-29 10:10 37.63323 27.38427 25982 ft 433 kts 334°
2026-04-29 10:10 37.66074 27.36858 26260 ft 435 kts 335°
2026-04-29 10:11 37.68854 27.35323 26552 ft 437 kts 335°
2026-04-29 10:11 37.71653 27.33809 26812 ft 439 kts 335°
2026-04-29 10:11 37.74469 27.32295 27082 ft 441 kts 335°
2026-04-29 10:11 37.77292 27.30772 27343 ft 442 kts 335°
2026-04-29 10:12 37.80125 27.29236 27618 ft 444 kts 335°
2026-04-29 10:12 37.82967 27.27684 27896 ft 445 kts 335°
2026-04-29 10:12 37.85812 27.26122 28196 ft 446 kts 335°
2026-04-29 10:12 37.88666 27.24553 28456 ft 448 kts 335°
2026-04-29 10:13 37.91528 27.22976 28723 ft 450 kts 335°
2026-04-29 10:13 37.94394 27.21393 29044 ft 449 kts 335°
2026-04-29 10:13 37.97253 27.19814 29407 ft 448 kts 335°
2026-04-29 10:13 38.00106 27.18244 29766 ft 447 kts 335°
2026-04-29 10:14 38.02955 27.16678 30109 ft 446 kts 335°
2026-04-29 10:14 38.05802 27.15111 30388 ft 446 kts 335°
2026-04-29 10:14 38.08641 27.13548 30687 ft 445 kts 335°
2026-04-29 10:14 38.11478 27.11983 30996 ft 444 kts 334°
2026-04-29 10:15 38.14304 27.10416 31311 ft 442 kts 334°
2026-04-29 10:15 38.17121 27.08852 31616 ft 441 kts 334°
2026-04-29 10:15 38.19931 27.07289 31924 ft 440 kts 334°
2026-04-29 10:15 38.22733 27.05734 32230 ft 439 kts 334°
2026-04-29 10:16 38.25531 27.04180 32537 ft 438 kts 334°
2026-04-29 10:16 38.27378 27.03153 32735 ft 437 kts 334°
2026-04-29 10:16 38.31042 27.00944 33149 ft 434 kts 327°
2026-04-29 10:16 38.33483 26.98808 33470 ft 429 kts 319°
2026-04-29 10:17 38.35731 26.96329 33800 ft 427 kts 317°
2026-04-29 10:17 38.37972 26.93840 34032 ft 427 kts 317°
2026-04-29 10:17 38.42429 26.88918 34079 ft 422 kts 317°
2026-04-29 10:18 38.46867 26.84023 34084 ft 421 kts 317°
2026-04-29 10:18 38.51297 26.79121 34087 ft 421 kts 317°
2026-04-29 10:19 38.55719 26.74207 34092 ft 421 kts 317°
2026-04-29 10:19 38.60136 26.69286 34112 ft 421 kts 317°
2026-04-29 10:20 38.64554 26.64363 34109 ft 421 kts 317°
2026-04-29 10:20 38.68973 26.59442 34110 ft 421 kts 317°
2026-04-29 10:21 38.73380 26.54511 34113 ft 421 kts 317°
2026-04-29 10:21 38.77783 26.49577 34112 ft 421 kts 317°
2026-04-29 10:22 38.82183 26.44634 34115 ft 420 kts 317°
2026-04-29 10:22 38.86620 26.39746 34116 ft 421 kts 318°
2026-04-29 10:23 38.91152 26.34982 34114 ft 421 kts 319°
2026-04-29 10:23 38.95687 26.30237 34113 ft 420 kts 319°
2026-04-29 10:24 39.00321 26.25334 34114 ft 420 kts 319°
2026-04-29 10:24 39.04817 26.20531 34126 ft 420 kts 318°
2026-04-29 10:25 39.09303 26.15722 34122 ft 420 kts 318°
2026-04-29 10:25 39.13790 26.10907 34121 ft 420 kts 318°
2026-04-29 10:26 39.18243 26.06126 34129 ft 419 kts 318°
2026-04-29 10:26 39.22727 26.01310 34124 ft 419 kts 318°
2026-04-29 10:27 39.29447 25.94099 34129 ft 419 kts 318°
2026-04-29 10:28 39.33878 25.89228 34122 ft 418 kts 317°
2026-04-29 10:28 39.38265 25.84289 34127 ft 418 kts 317°
2026-04-29 10:29 39.42661 25.79351 34130 ft 419 kts 317°
2026-04-29 10:29 39.47067 25.74427 34141 ft 418 kts 317°
2026-04-29 10:30 39.51470 25.69497 34134 ft 418 kts 317°
2026-04-29 10:30 39.55864 25.64565 34133 ft 418 kts 317°
2026-04-29 10:31 39.60258 25.59631 34134 ft 418 kts 317°
2026-04-29 10:31 39.64651 25.54685 34132 ft 418 kts 317°
2026-04-29 10:32 39.68300 25.50569 34129 ft 418 kts 317°
2026-04-29 10:32 39.72689 25.45606 34143 ft 418 kts 317°
2026-04-29 10:33 39.77074 25.40642 34149 ft 418 kts 317°
2026-04-29 10:33 39.81450 25.35670 34149 ft 418 kts 317°
2026-04-29 10:34 39.85828 25.30701 34156 ft 417 kts 317°
2026-04-29 10:34 39.90197 25.25724 34149 ft 417 kts 317°
2026-04-29 10:35 39.94550 25.20740 34151 ft 416 kts 316°
2026-04-29 10:35 39.98866 25.15701 34151 ft 416 kts 316°
2026-04-29 10:36 40.03167 25.10652 34142 ft 416 kts 316°
2026-04-29 10:36 40.07474 25.05606 34152 ft 416 kts 316°
2026-04-29 10:37 40.11780 25.00557 34151 ft 416 kts 316°
2026-04-29 10:37 40.16085 24.95502 34144 ft 416 kts 316°
2026-04-29 10:38 40.20389 24.90437 34144 ft 416 kts 316°
2026-04-29 10:38 40.24659 24.85396 34145 ft 416 kts 316°
2026-04-29 10:39 40.28960 24.80313 34162 ft 416 kts 316°
2026-04-29 10:39 40.33257 24.75228 34161 ft 416 kts 316°
2026-04-29 10:40 40.37544 24.70146 34160 ft 415 kts 316°
2026-04-29 10:40 40.41828 24.65063 34161 ft 415 kts 316°
2026-04-29 10:41 40.46112 24.59971 34159 ft 415 kts 316°
2026-04-29 10:41 40.50385 24.54874 34157 ft 415 kts 315°
2026-04-29 10:42 40.54659 24.49769 34170 ft 415 kts 315°
2026-04-29 10:42 40.58930 24.44670 34170 ft 414 kts 315°
2026-04-29 10:43 40.63187 24.39570 34170 ft 414 kts 315°
2026-04-29 10:43 40.67435 24.34466 34162 ft 413 kts 315°
2026-04-29 10:44 40.71680 24.29364 34158 ft 413 kts 315°
2026-04-29 10:44 40.75918 24.24257 34151 ft 413 kts 315°
2026-04-29 10:45 40.80156 24.19143 34148 ft 413 kts 315°
2026-04-29 10:45 40.84390 24.14025 34158 ft 413 kts 315°
2026-04-29 10:46 40.88588 24.08940 34160 ft 412 kts 315°
2026-04-29 10:46 40.92804 24.03820 34156 ft 411 kts 315°
2026-04-29 10:47 40.97009 23.98702 34151 ft 410 kts 315°
2026-04-29 10:47 41.01209 23.93586 34147 ft 410 kts 315°
2026-04-29 10:48 41.05405 23.88473 34144 ft 410 kts 315°
2026-04-29 10:48 41.09596 23.83356 34143 ft 410 kts 315°
2026-04-29 10:49 41.13782 23.78229 34141 ft 409 kts 315°
2026-04-29 10:49 41.17958 23.73107 34132 ft 409 kts 315°
2026-04-29 10:50 41.22131 23.67976 34133 ft 409 kts 315°
2026-04-29 10:50 41.26297 23.62848 34127 ft 408 kts 315°
2026-04-29 10:51 41.30462 23.57722 34126 ft 408 kts 315°
2026-04-29 10:51 41.34590 23.52617 34126 ft 408 kts 315°
2026-04-29 10:52 41.38930 23.47761 34141 ft 411 kts 325°
2026-04-29 10:52 41.44267 23.44935 34138 ft 420 kts 345°
2026-04-29 10:53 41.50094 23.43914 34126 ft 423 kts 348°
2026-04-29 10:53 41.55928 23.42958 34123 ft 423 kts 348°
2026-04-29 10:54 41.61764 23.41987 34128 ft 422 kts 348°
2026-04-29 10:54 41.67595 23.41001 34123 ft 422 kts 347°
2026-04-29 10:55 41.73418 23.40022 34125 ft 422 kts 348°
2026-04-29 10:55 41.79240 23.39049 34143 ft 422 kts 347°
2026-04-29 10:56 41.85057 23.38071 34137 ft 421 kts 347°
2026-04-29 10:56 41.90866 23.37094 34131 ft 420 kts 347°
2026-04-29 10:57 41.96669 23.36113 34133 ft 420 kts 347°
2026-04-29 10:57 42.02472 23.35135 34150 ft 420 kts 347°
2026-04-29 10:58 42.08271 23.34154 34140 ft 420 kts 347°
2026-04-29 10:58 42.14060 23.33163 34132 ft 419 kts 347°
2026-04-29 10:59 42.19798 23.32194 34148 ft 418 kts 347°
2026-04-29 10:59 42.25610 23.31215 34142 ft 418 kts 347°
2026-04-29 11:00 42.31337 23.30234 34134 ft 417 kts 346°
2026-04-29 11:00 42.37095 23.29241 34125 ft 417 kts 346°
2026-04-29 11:01 42.42846 23.28252 34124 ft 417 kts 346°
2026-04-29 11:01 42.48599 23.27267 34122 ft 417 kts 346°
2026-04-29 11:02 42.54349 23.26284 34120 ft 417 kts 346°
2026-04-29 11:02 42.60102 23.25295 34140 ft 417 kts 346°
2026-04-29 11:03 42.65853 23.24313 34128 ft 416 kts 346°
2026-04-29 11:03 42.71599 23.23318 34123 ft 416 kts 346°
2026-04-29 11:04 42.77345 23.22312 34137 ft 416 kts 346°
2026-04-29 11:04 42.83091 23.21313 34134 ft 416 kts 346°
2026-04-29 11:05 42.88833 23.20307 34131 ft 416 kts 346°
2026-04-29 11:05 42.94574 23.19315 34128 ft 416 kts 346°
2026-04-29 11:06 43.00315 23.18322 34153 ft 415 kts 346°
2026-04-29 11:06 43.06037 23.17323 34147 ft 414 kts 346°
2026-04-29 11:07 43.11490 23.15333 34132 ft 403 kts 333°
2026-04-29 11:07 43.16726 23.12594 34132 ft 403 kts 333°
2026-04-29 11:08 43.21914 23.09857 34154 ft 403 kts 333°
2026-04-29 11:08 43.27144 23.07096 34152 ft 402 kts 333°
2026-04-29 11:09 43.32358 23.04340 34158 ft 401 kts 333°
2026-04-29 11:09 43.37569 23.01572 34157 ft 401 kts 333°
2026-04-29 11:10 43.42774 22.98818 34160 ft 401 kts 333°
2026-04-29 11:10 43.47978 22.96064 34154 ft 400 kts 333°
2026-04-29 11:11 43.53166 22.93312 34155 ft 400 kts 333°
2026-04-29 11:11 43.58352 22.90552 34159 ft 399 kts 333°
2026-04-29 11:12 43.63532 22.87788 34191 ft 399 kts 332°
2026-04-29 11:12 43.68706 22.85025 34186 ft 398 kts 332°
2026-04-29 11:13 43.73861 22.82257 34174 ft 397 kts 332°
2026-04-29 11:13 43.78975 22.79502 34176 ft 397 kts 332°
2026-04-29 11:14 43.84118 22.76736 34169 ft 396 kts 332°
2026-04-29 11:14 43.89257 22.73974 34196 ft 396 kts 332°
2026-04-29 11:15 43.94382 22.71211 34182 ft 395 kts 332°
2026-04-29 11:15 43.99500 22.68451 34169 ft 394 kts 332°
2026-04-29 11:16 44.04611 22.65680 34167 ft 394 kts 332°
2026-04-29 11:16 44.09723 22.62897 34178 ft 394 kts 332°
2026-04-29 11:17 44.14817 22.60136 34153 ft 392 kts 331°
2026-04-29 11:17 44.19902 22.57367 34149 ft 392 kts 332°
2026-04-29 11:18 44.24982 22.54596 34153 ft 392 kts 331°
2026-04-29 11:18 44.30068 22.51808 34182 ft 392 kts 331°
2026-04-29 11:19 44.35146 22.49019 34180 ft 393 kts 331°
2026-04-29 11:19 44.40233 22.46233 34171 ft 392 kts 331°
2026-04-29 11:20 44.45315 22.43444 34162 ft 392 kts 331°
2026-04-29 11:20 44.50392 22.40650 34160 ft 392 kts 331°
2026-04-29 11:21 44.55470 22.37842 34157 ft 392 kts 331°
2026-04-29 11:21 44.60548 22.35041 34151 ft 392 kts 331°
2026-04-29 11:22 44.65631 22.32231 34151 ft 392 kts 331°
2026-04-29 11:22 44.69851 22.29891 34147 ft 393 kts 331°
2026-04-29 11:23 44.74932 22.27064 34163 ft 393 kts 331°
2026-04-29 11:23 44.80012 22.24239 34174 ft 392 kts 331°
2026-04-29 11:24 44.85085 22.21417 34166 ft 392 kts 331°
2026-04-29 11:24 44.90153 22.18588 34152 ft 392 kts 331°
2026-04-29 11:25 44.95215 22.15741 34154 ft 392 kts 331°
2026-04-29 11:25 45.00274 22.12890 34179 ft 391 kts 331°
2026-04-29 11:26 45.07830 22.08654 34165 ft 389 kts 331°
2026-04-29 11:26 45.12849 22.05821 34161 ft 388 kts 330°
2026-04-29 11:27 45.17864 22.02983 34153 ft 388 kts 331°
2026-04-29 11:27 45.22877 22.00148 34190 ft 388 kts 330°
2026-04-29 11:28 45.27888 21.97307 34183 ft 388 kts 330°
2026-04-29 11:28 45.32892 21.94465 34178 ft 387 kts 330°
2026-04-29 11:29 45.37891 21.91618 34171 ft 387 kts 330°
2026-04-29 11:29 45.42886 21.88763 34174 ft 387 kts 330°
2026-04-29 11:30 45.47880 21.85914 34193 ft 387 kts 330°
2026-04-29 11:30 45.52845 21.83073 34182 ft 387 kts 330°
2026-04-29 11:31 45.57847 21.80201 34176 ft 388 kts 330°
2026-04-29 11:31 45.62807 21.77343 34160 ft 388 kts 330°
2026-04-29 11:32 45.67858 21.74433 34161 ft 388 kts 330°
2026-04-29 11:32 45.72872 21.71547 34187 ft 389 kts 330°
2026-04-29 11:33 45.77893 21.68648 34170 ft 389 kts 331°
2026-04-29 11:33 45.82917 21.65742 34164 ft 390 kts 330°
2026-04-29 11:34 45.87946 21.62825 34163 ft 390 kts 330°
2026-04-29 11:34 45.92976 21.59900 34170 ft 390 kts 330°
2026-04-29 11:35 45.98013 21.56965 34187 ft 391 kts 331°
2026-04-29 11:35 46.03052 21.54022 34188 ft 391 kts 331°
2026-04-29 11:36 46.08098 21.51069 34196 ft 392 kts 331°
2026-04-29 11:36 46.13144 21.48112 34198 ft 391 kts 331°
2026-04-29 11:37 46.18186 21.45160 34239 ft 391 kts 332°
2026-04-29 11:37 46.23230 21.42192 34207 ft 391 kts 332°
2026-04-29 11:38 46.28275 21.39215 34200 ft 392 kts 332°
2026-04-29 11:38 46.33323 21.36236 34196 ft 392 kts 332°
2026-04-29 11:39 46.38377 21.33255 34183 ft 392 kts 332°
2026-04-29 11:39 46.43422 21.30262 34215 ft 392 kts 332°
2026-04-29 11:40 46.48533 21.27449 34205 ft 398 kts 339°
2026-04-29 11:40 46.54144 21.26736 34205 ft 412 kts 352°
2026-04-29 11:41 46.59874 21.26827 34197 ft 412 kts 352°
2026-04-29 11:41 46.65571 21.26896 34236 ft 412 kts 352°
2026-04-29 11:42 46.71300 21.26957 34224 ft 412 kts 352°
2026-04-29 11:42 46.77031 21.27024 34217 ft 412 kts 352°
2026-04-29 11:43 46.82798 21.27089 34212 ft 412 kts 352°
2026-04-29 11:43 46.88488 21.27159 34203 ft 412 kts 352°
2026-04-29 11:44 46.94213 21.27222 34205 ft 412 kts 352°
2026-04-29 11:44 46.99943 21.27289 34210 ft 412 kts 352°
2026-04-29 11:45 47.05670 21.27363 34211 ft 412 kts 352°
2026-04-29 11:45 47.11398 21.27423 34241 ft 412 kts 352°
2026-04-29 11:46 47.17130 21.27490 34232 ft 412 kts 352°
2026-04-29 11:46 47.22865 21.27571 34231 ft 412 kts 352°
2026-04-29 11:47 47.28600 21.27643 34229 ft 412 kts 352°
2026-04-29 11:47 47.34334 21.27702 34245 ft 412 kts 352°
2026-04-29 11:48 47.40071 21.27764 34238 ft 412 kts 352°
2026-04-29 11:48 47.45813 21.27836 34228 ft 413 kts 352°
2026-04-29 11:49 47.51555 21.27903 34224 ft 413 kts 352°
2026-04-29 11:49 47.57284 21.27962 34240 ft 412 kts 352°
2026-04-29 11:50 47.63038 21.28035 34226 ft 412 kts 352°
2026-04-29 11:50 47.68780 21.28112 34228 ft 413 kts 352°
2026-04-29 11:51 47.74476 21.28181 34272 ft 412 kts 352°
2026-04-29 11:51 47.80218 21.28245 34261 ft 412 kts 352°
2026-04-29 11:52 47.85952 21.28315 34249 ft 412 kts 352°
2026-04-29 11:52 47.91687 21.28387 34247 ft 412 kts 352°
2026-04-29 11:53 47.97418 21.28458 34272 ft 412 kts 352°
2026-04-29 11:53 48.03151 21.28524 34258 ft 412 kts 352°
2026-04-29 11:54 48.08885 21.28591 34251 ft 412 kts 352°
2026-04-29 11:54 48.14619 21.28662 34249 ft 412 kts 352°
2026-04-29 11:55 48.20356 21.28730 34282 ft 413 kts 352°
2026-04-29 11:55 48.26091 21.28791 34234 ft 412 kts 352°
2026-04-29 11:56 48.31832 21.28867 34236 ft 413 kts 352°
2026-04-29 11:56 48.37578 21.28948 34236 ft 413 kts 352°
2026-04-29 11:57 48.43330 21.29022 34286 ft 413 kts 353°
2026-04-29 11:57 48.49080 21.29087 34268 ft 413 kts 353°
2026-04-29 11:58 48.54716 21.28323 34267 ft 401 kts 341°
2026-04-29 11:58 48.60159 21.26452 34240 ft 401 kts 341°
2026-04-29 11:59 48.65602 21.24588 34249 ft 401 kts 341°
2026-04-29 11:59 48.71054 21.22732 34247 ft 403 kts 341°
2026-04-29 12:00 48.76532 21.20864 34235 ft 404 kts 341°
2026-04-29 12:00 48.82022 21.18978 34236 ft 405 kts 341°
2026-04-29 12:01 48.87526 21.17084 34239 ft 406 kts 341°